Weather History for KASW - April, 2013

Change the Weather History Date:

Thursday, April 18, 2013

  Actual Average (WUND) Record (WUND)
Temperature  
Mean Temperature 58 °F -  
Max Temperature 71 °F - - (-1)
Min Temperature 44 °F - - (-1)
Degree Days  
Heating Degree Days 8    
Growing Degree Days 8 (Base 50)    
Moisture  
Dew Point 55 °F    
Average Humidity 91    
Maximum Humidity 100    
Minimum Humidity 73    
Precipitation  
Precipitation 1.01 in - - ()
Sea Level Pressure  
Sea Level Pressure 29.71 in    
Wind  
Wind Speed 10 mph (SSE)    
Max Wind Speed 18 mph    
Max Gust Speed 31 mph    
Visibility 9 miles    
Events Rain    
Averages and records for this station are not official NWS values.
T = Trace of Precipitation, MM = Missing Value Source: NWS Daily Summary

Daily Weather History Graph

Daily Weather History Graph

Search for Another Location

Airport or City:

Trip Planner

Search our weather history database for the weather conditions in past years. The results will help you decide how hot, cold, wet, or windy it might be!

Date:

Astronomy

Apr. 18, 2013 Rise Set
Actual Time 6:58 AM EDT 8:27 PM EDT
Civil Twilight 6:30 AM EDT 8:55 PM EDT
Nautical Twilight 5:55 AM EDT 9:30 PM EDT
Astronomical Twilight 5:18 AM EDT 10:07 PM EDT
Moon 1:09 PM EDT (4/18) 2:42 AM EDT (4/18)
Length of Visible Light 14h 25m
Length of Day
13h 28m
First Quarter, 51% of the Moon is Illuminated
Apr 18
First Quarter
Apr 25
Full
May 2
Last Quarter
May 9
New
May 18
First Quarter

Hourly Weather History & Observations

Time (EDT) Temp. Windchill Dew Point Humidity Pressure Visibility Wind Dir Wind Speed Gust Speed Precip Events Conditions
12:15 AM 44.6 °F 38.8 °F 42.8 °F 93% 29.93 in 10.0 mi East 11.5 mph - N/A   Overcast
12:35 AM 44.6 °F 38.1 °F 42.8 °F 93% 29.91 in 10.0 mi ESE 13.8 mph - N/A   Mostly Cloudy
12:55 AM 44.6 °F 38.4 °F 42.8 °F 93% 29.90 in 10.0 mi ESE 12.7 mph - N/A   Mostly Cloudy
1:15 AM 46.4 °F 41.5 °F 42.8 °F 87% 29.89 in 10.0 mi ESE 10.4 mph 17.3 mph N/A   Overcast
1:55 AM 46.4 °F 41.9 °F 44.6 °F 93% 29.87 in 10.0 mi SE 9.2 mph - N/A   Overcast
2:15 AM 46.4 °F 41.5 °F 44.6 °F 93% 29.86 in 10.0 mi ESE 10.4 mph 17.3 mph N/A   Overcast
2:35 AM 46.4 °F 40.7 °F 42.8 °F 87% 29.83 in 10.0 mi ESE 12.7 mph 18.4 mph N/A   Scattered Clouds
2:55 AM 46.4 °F 42.4 °F 42.8 °F 87% 29.81 in 10.0 mi ESE 8.1 mph - N/A   Scattered Clouds
3:15 AM 46.4 °F 41.5 °F 42.8 °F 87% 29.80 in 10.0 mi SE 10.4 mph 19.6 mph N/A   Scattered Clouds
3:35 AM 46.4 °F 42.9 °F 44.6 °F 93% 29.79 in 10.0 mi SE 6.9 mph - N/A   Clear
3:55 AM 48.2 °F - 46.4 °F 93% 29.78 in 10.0 mi SE 10.4 mph 16.1 mph N/A   Clear
4:15 AM 50.0 °F - 46.4 °F 87% 29.77 in 10.0 mi SE 10.4 mph - N/A   Clear
4:35 AM 50.0 °F - 46.4 °F 87% 29.77 in 10.0 mi SE 8.1 mph - N/A   Clear
4:55 AM 51.8 °F - 50.0 °F 94% 29.77 in 10.0 mi South 6.9 mph - N/A   Clear
5:15 AM 51.8 °F - 50.0 °F 94% 29.75 in 10.0 mi SE 5.8 mph - N/A   Clear
5:35 AM 53.6 °F - 51.8 °F 94% 29.75 in 10.0 mi SE 5.8 mph - N/A   Scattered Clouds
5:55 AM 55.4 °F - 51.8 °F 88% 29.74 in 10.0 mi SSE 5.8 mph - N/A   Mostly Cloudy
6:35 AM 55.4 °F - 53.6 °F 94% 29.72 in 10.0 mi SSE 8.1 mph - N/A   Scattered Clouds
6:55 AM 57.2 °F - 53.6 °F 88% 29.71 in 10.0 mi SSE 6.9 mph - N/A   Clear
7:15 AM 59.0 °F - 55.4 °F 88% 29.71 in 10.0 mi SSE 6.9 mph - N/A   Clear
7:35 AM 59.0 °F - 55.4 °F 88% 29.71 in 10.0 mi South 8.1 mph - N/A   Clear
7:55 AM 60.8 °F - 57.2 °F 88% 29.71 in 10.0 mi South 8.1 mph - N/A   Clear
8:15 AM 62.6 °F - 59.0 °F 88% 29.70 in 10.0 mi South 6.9 mph - N/A   Scattered Clouds
8:55 AM 64.4 °F - 59.0 °F 83% 29.68 in 10.0 mi South 10.4 mph 16.1 mph N/A   Clear
9:15 AM 66.2 °F - 60.8 °F 83% 29.66 in 10.0 mi South 10.4 mph 20.7 mph N/A   Clear
9:55 AM 69.8 °F - 62.6 °F 78% 29.64 in 10.0 mi South 12.7 mph 31.1 mph N/A   Scattered Clouds
10:15 AM 69.8 °F - 62.6 °F 78% 29.64 in 10.0 mi SSW 16.1 mph 27.6 mph N/A   Scattered Clouds
10:35 AM 69.8 °F - 62.6 °F 78% 29.64 in 10.0 mi SSW 18.4 mph 31.1 mph N/A   Mostly Cloudy
10:55 AM 69.8 °F - 62.6 °F 78% 29.63 in 10.0 mi SSW 17.3 mph 27.6 mph N/A   Overcast
11:15 AM 71.6 °F - 62.6 °F 73% 29.63 in 10.0 mi South 18.4 mph 27.6 mph N/A   Overcast
11:35 AM 71.6 °F - 62.6 °F 73% 29.61 in 10.0 mi South 13.8 mph 29.9 mph N/A   Overcast
11:55 AM 68.0 °F - 62.6 °F 83% 29.67 in 4.0 mi SW 16.1 mph 29.9 mph 0.05 in Rain Heavy Rain
12:15 PM 62.6 °F - 59.0 °F 88% 29.68 in 7.0 mi SW 13.8 mph 21.9 mph 0.06 in Rain Rain
12:35 PM 60.8 °F - 59.0 °F 94% 29.68 in 7.0 mi SSW 6.9 mph - 0.12 in Rain Heavy Rain
12:55 PM 60.8 °F - 59.0 °F 94% 29.68 in 7.0 mi SSW 6.9 mph - 0.14 in Rain Rain
1:15 PM 60.8 °F - 59.0 °F 94% 29.69 in 10.0 mi SW 8.1 mph - 0.02 in Rain Light Rain
1:35 PM 60.8 °F - 59.0 °F 94% 29.69 in 10.0 mi SW 10.4 mph 19.6 mph 0.03 in Rain Light Rain
1:55 PM 60.8 °F - 59.0 °F 94% 29.68 in 10.0 mi South 6.9 mph - 0.04 in Rain Rain
2:15 PM 60.8 °F - 59.0 °F 94% 29.66 in 7.0 mi South 5.8 mph - 0.02 in Rain Rain
2:35 PM 60.8 °F - 59.0 °F 94% 29.68 in 5.0 mi SSW 8.1 mph - 0.05 in Rain Rain
2:55 PM 60.8 °F - 59.0 °F 94% 29.68 in 7.0 mi SSW 6.9 mph - 0.09 in Rain Rain
3:15 PM 60.8 °F - 59.0 °F 94% 29.69 in 5.0 mi South 6.9 mph - 0.05 in Rain Heavy Rain
3:55 PM 60.8 °F - 59.0 °F 94% 29.70 in 7.0 mi SSW 6.9 mph - 0.14 in Rain Rain
4:15 PM 59.0 °F - 59.0 °F 100% 29.68 in 10.0 mi SSW 6.9 mph - 0.01 in Rain Light Rain
5:15 PM 59.0 °F - 59.0 °F 100% 29.69 in 3.0 mi South 6.9 mph - 0.07 in Rain Heavy Rain
5:35 PM 59.0 °F - 59.0 °F 100% 29.69 in 7.0 mi SW 6.9 mph - 0.10 in Rain Light Rain
5:55 PM 59.0 °F - 59.0 °F 100% 29.68 in 10.0 mi South 5.8 mph - 0.12 in Rain Rain
6:15 PM 59.0 °F - 59.0 °F 100% 29.67 in 7.0 mi SSW 3.5 mph - 0.01 in Rain Rain
6:35 PM 59.0 °F - 59.0 °F 100% 29.68 in 10.0 mi South 5.8 mph - 0.03 in Rain Rain
6:55 PM 59.0 °F - 59.0 °F 100% 29.68 in 5.0 mi South 9.2 mph - 0.08 in Rain Rain
7:15 PM 59.0 °F - 59.0 °F 100% 29.69 in 10.0 mi South 5.8 mph - 0.02 in Rain Rain
7:35 PM 59.0 °F - 59.0 °F 100% 29.66 in 7.0 mi SSE 3.5 mph - 0.04 in Rain Rain
7:55 PM 59.0 °F - 59.0 °F 100% 29.64 in 10.0 mi SSE 5.8 mph - 0.06 in Rain Light Rain
8:15 PM 59.0 °F - 57.2 °F 94% 29.65 in 10.0 mi SSE 5.8 mph - 0.02 in Rain Rain
8:35 PM 59.0 °F - 57.2 °F 94% 29.63 in 7.0 mi SE 8.1 mph - 0.06 in Rain Rain
8:55 PM 59.0 °F - 57.2 °F 94% 29.63 in 10.0 mi SSE 10.4 mph - 0.09 in Rain Rain
9:15 PM 59.0 °F - 57.2 °F 94% 29.62 in 7.0 mi SE 8.1 mph - 0.03 in Rain Rain
9:35 PM 59.0 °F - 57.2 °F 94% 29.63 in 10.0 mi SSE 9.2 mph - 0.05 in Rain Rain
11:15 PM 59.0 °F - 57.2 °F 94% 29.56 in 7.0 mi SSE 6.9 mph - 0.03 in Rain Rain
11:35 PM 59.0 °F - 59.0 °F 100% 29.55 in 7.0 mi SSE 11.5 mph 18.4 mph 0.08 in Rain Rain
11:55 PM 59.0 °F - 59.0 °F 100% 29.54 in 7.0 mi SSE 8.1 mph - 0.14 in Rain Heavy Rain